Satellite: XATCOBEO
Catalog number: 38082
Epoch time:      12131.72470761
Element set:     229
Inclination:      069.4958 deg
RA of node:       041.0664 deg
Eccentricity:    0.0747456
Arg of perigee:   294.8762 deg
Mean anomaly:     057.6740 deg
Mean motion:   14.13933230 rev/day
Decay rate:     3.8018e-04 rev/day^2
Epoch rev:            1229
Checksum:              308

/EX
SB KEPS @ AMSAT  $ORB12131.W
Orbital Elements  12131.WEATHER

HR AMSAT ORBITAL ELEMENTS FOR WEATHER SATELLITES
FROM WA5QGD FORT WORTH,TX May 10, 2012
Send SUBSCRIBE KEPS/UNSUBSCRIBE KEPS to majordomo@amsat.org only
BID: ORB12131.W
TO ALL RADIO AMATEURS BT

Satellite: NOAA-10
Catalog number: 16969
Epoch time:      12131.52201736
Element set:     914
Inclination:      098.5850 deg
RA of node:       161.2395 deg
Eccentricity:    0.0012385
Arg of perigee:   349.6606 deg
Mean anomaly:     010.4327 deg
Mean motion:   14.27548618 rev/day
Decay rate:       1.88e-06 rev/day^2
Epoch rev:           33449
Checksum:              308

Satellite: NOAA-11
Catalog number: 19531
Epoch time:      12131.31351074
Element set:     915
Inclination:      098.7321 deg
RA of node:       217.2663 deg
Eccentricity:    0.0011124
Arg of perigee:   336.7626 deg
Mean anomaly:     023.3054 deg
Mean motion:   14.14964669 rev/day
Decay rate:      -1.34e-06 rev/day^2
Epoch rev:           21915
Checksum:              271

Satellite: NOAA-12
Catalog number: 21263
Epoch time:      12131.56553925
Element set:     402
Inclination:      098.7314 deg
RA of node:       153.4044 deg
Eccentricity:    0.0013226
Arg of perigee:   313.8131 deg
Mean anomaly:     046.1956 deg
Mean motion:   14.25492915 rev/day
Decay rate:        8.9e-07 rev/day^2
Epoch rev:            9119
Checksum:              279

Satellite: MET-3/5
Catalog number: 21655
Epoch time:      12130.78516677
Element set:    0001
Inclination:      082.5562 deg
RA of node:       179.3158 deg
Eccentricity:    0.0014415
Arg of perigee:   062.7412 deg
Mean anomaly:     297.5177 deg
Mean motion:   13.17033116 rev/day
Decay rate:       3.90e-06 rev/day^2
Epoch rev:           99660
Checksum:              297

Satellite: MET-2/21
Catalog number: 22782
Epoch time:      12131.84350804
Element set:     413
Inclination:      082.5497 deg
RA of node:       062.1415 deg
Eccentricity:    0.0020948
Arg of perigee:   256.7661 deg
Mean anomaly:     103.1175 deg
Mean motion:   13.83682928 rev/day
Decay rate:       1.10e-06 rev/day^2
Epoch rev:           94400
Checksum:              281

Satellite: OKEAN-4
Catalog number: 23317
Epoch time:      12130.92961413
Element set:    0903
Inclination:      082.5403 deg
RA of node:       066.9672 deg
Eccentricity:    0.0023076
Arg of perigee:   115.2390 deg
Mean anomaly:     245.1220 deg
Mean motion:   14.83735451 rev/day
Decay rate:       9.21e-06 rev/day^2
Epoch rev:           94913
Checksum:              276

Satellite: NOAA-14
Catalog number: 23455
Epoch time:      12131.54111163
Element set:     883
Inclination:      098.8274 deg
RA of node:       215.5114 deg
Eccentricity:    0.0010336
Arg of perigee:   067.6608 deg
Mean anomaly:     292.5660 deg
Mean motion:   14.13895907 rev/day
Decay rate:        9.6e-07 rev/day^2
Epoch rev:           89547
Checksum:              312

Satellite: NOAA-15
Catalog number: 25338
Epoch time:      12131.42334297
Element set:     256
Inclination:      098.6883 deg
RA of node:       118.6927 deg
Eccentricity:    0.0009974
Arg of perigee:   214.5132 deg
Mean anomaly:     145.5418 deg
Mean motion:   14.25065058 rev/day
Decay rate:       2.67e-06 rev/day^2
Epoch rev:           72747
Checksum:              321

Satellite: RESURS
Catalog number: 25394
Epoch time:      12130.97452542
Element set:    0097
Inclination:      098.3195 deg
RA of node:       121.2284 deg
Eccentricity:    0.0001981
Arg of perigee:   023.9259 deg
Mean anomaly:     336.2007 deg
Mean motion:   14.24286089 rev/day
Decay rate:        1.9e-07 rev/day^2
Epoch rev:           71896
Checksum:              304

Satellite: FENGYUN1
Catalog number: 25730
Epoch time:      12130.95401341
Element set:    0602
Inclination:      098.8447 deg
RA of node:       090.6060 deg
Eccentricity:    0.0019888
Arg of perigee:   109.7883 deg
Mean anomaly:     250.5433 deg
Mean motion:   14.09475637 rev/day
Decay rate:      1.422e-05 rev/day^2
Epoch rev:           66922
Checksum:              301

Satellite: OKEAN-0
Catalog number: 25860
Epoch time:      12131.92965371
Element set:     623
Inclination:      097.9325 deg
RA of node:       095.3435 deg
Eccentricity:    0.0001616
Arg of perigee:   047.1387 deg
Mean anomaly:     312.9953 deg
Mean motion:   14.74179020 rev/day
Decay rate:       3.78e-06 rev/day^2
Epoch rev:           68908
Checksum:              316

Satellite: NOAA-16
Catalog number: 26536
Epoch time:      12131.43002104
Element set:     741
Inclination:      099.0968 deg
RA of node:       172.9637 deg
Eccentricity:    0.0010434
Arg of perigee:   185.8969 deg
Mean anomaly:     174.2070 deg
Mean motion:   14.12734531 rev/day
Decay rate:        6.3e-07 rev/day^2
Epoch rev:           59970
Checksum:              299

